INTELSAT 21 (IS-21)

Last updated on Mon Oct 14 2024 00:02:39 GMT+0000 (Coordinated Universal Time)

1 38749U 12045A 24287.46650029 -.00000286 00000+0 00000+0 0 9993 2 38749 0.0182 117.3764 0002453 92.1934 282.9081 1.00272544 44390
UTC large
Height (km)
Speed (km/s)
/
Latitude / Longitude
Inclination (degrees)
Orbital Period (minutes)
Azimuth
Elevation
Range (km)
Doppler Factor

Next 0 passes for location: London (51.5072 / 0.1276)

Sorry there are no passes over London.